Time,TemperatureF,DewpointF,PressureIn,WindDirection,WindDirectionDegrees,WindSpeedMPH,WindSpeedGustMPH,Humidity,HourlyPrecipIn,Conditions,Clouds,dailyrainin,SoftwareType,DateUTC
2013-10-27 00:00:00,60.0,58.3,30.06,SE,146,5.0,5.0,94,0.00,,,1.15,Wunderground v.1.15,2013-10-27 05:00:00,
2013-10-27 00:10:00,59.7,58.0,30.06,SE,145,3.0,3.0,94,0.00,,,0.00,Wunderground v.1.15,2013-10-27 05:10:00,
2013-10-27 00:15:00,59.6,57.9,30.06,SSE,148,2.0,6.0,94,0.00,,,0.00,Wunderground v.1.15,2013-10-27 05:15:00,
2013-10-27 00:20:00,59.5,57.8,30.06,SSE,147,2.0,6.0,94,0.00,,,0.00,Wunderground v.1.15,2013-10-27 05:20:00,
2013-10-27 00:25:00,59.5,57.8,30.06,SSE,157,5.0,6.0,94,0.00,,,0.00,Wunderground v.1.15,2013-10-27 05:25:00,
2013-10-27 00:35:00,59.4,57.7,30.06,South,172,3.0,5.0,94,0.00,,,0.00,Wunderground v.1.15,2013-10-27 05:35:00,
2013-10-27 00:40:00,59.4,57.7,30.06,SSE,148,5.0,5.0,94,0.00,,,0.00,Wunderground v.1.15,2013-10-27 05:40:00,
2013-10-27 00:45:00,59.3,57.6,30.06,SSE,153,4.0,5.0,94,0.00,,,0.00,Wunderground v.1.15,2013-10-27 05:45:00,
2013-10-27 00:50:00,59.3,57.6,30.06,SE,145,2.0,2.0,94,0.00,,,0.00,Wunderground v.1.15,2013-10-27 05:50:00,
2013-10-27 01:00:00,59.3,57.9,30.07,SE,136,1.0,8.0,95,0.00,,,0.00,Wunderground v.1.15,2013-10-27 06:00:00,
2013-10-27 01:10:00,59.2,57.8,30.07,ESE,122,3.0,3.0,95,0.00,,,0.00,Wunderground v.1.15,2013-10-27 06:10:00,
2013-10-27 01:15:00,59.1,57.7,30.07,ESE,121,1.0,3.0,95,0.00,,,0.00,Wunderground v.1.15,2013-10-27 06:15:00,
2013-10-27 01:20:00,59.1,57.7,30.06,ESE,119,0.0,0.0,95,0.00,,,0.00,Wunderground v.1.15,2013-10-27 06:20:00,
2013-10-27 01:25:00,59.1,57.7,30.06,ESE,119,0.0,0.0,95,0.00,,,0.00,Wunderground v.1.15,2013-10-27 06:25:00,
2013-10-27 01:30:00,59.2,57.8,30.06,ESE,119,0.0,0.0,95,0.00,,,0.00,Wunderground v.1.15,2013-10-27 06:30:00,
2013-10-27 01:35:00,59.2,57.8,30.06,ESE,119,0.0,0.0,95,0.00,,,0.00,Wunderground v.1.15,2013-10-27 06:35:00,
2013-10-27 01:45:00,59.2,57.8,30.06,ESE,119,0.0,0.0,95,0.00,,,0.00,Wunderground v.1.15,2013-10-27 06:45:00,
2013-10-27 01:50:00,59.2,57.8,30.06,ESE,119,0.0,0.0,95,0.00,,,0.00,Wunderground v.1.15,2013-10-27 06:50:00,
2013-10-27 01:55:00,59.2,57.8,30.06,ESE,119,0.0,0.0,95,0.00,,,0.00,Wunderground v.1.15,2013-10-27 06:55:00,
2013-10-27 02:00:00,59.2,57.8,30.06,ESE,119,0.0,0.0,95,0.00,,,0.00,Wunderground v.1.15,2013-10-27 07:00:00,
2013-10-27 02:10:00,59.1,57.7,30.06,ESE,119,0.0,0.0,95,0.00,,,0.00,Wunderground v.1.15,2013-10-27 07:10:00,
2013-10-27 02:15:00,59.1,57.7,30.06,ESE,119,0.0,0.0,95,0.00,,,0.00,Wunderground v.1.15,2013-10-27 07:15:00,
2013-10-27 02:25:00,59.1,57.7,30.05,ESE,119,0.0,0.0,95,0.00,,,0.00,Wunderground v.1.15,2013-10-27 07:25:00,
2013-10-27 02:30:00,59.0,57.6,30.05,ESE,119,0.0,0.0,95,0.00,,,0.00,Wunderground v.1.15,2013-10-27 07:30:00,
2013-10-27 02:35:00,58.9,57.5,30.05,ESE,119,0.0,0.0,95,0.00,,,0.00,Wunderground v.1.15,2013-10-27 07:35:00,
2013-10-27 02:40:00,58.8,57.4,30.05,ESE,119,0.0,0.0,95,0.00,,,0.00,Wunderground v.1.15,2013-10-27 07:40:00,
2013-10-27 02:50:00,58.8,57.4,30.06,ESE,119,0.0,0.0,95,0.00,,,0.00,Wunderground v.1.15,2013-10-27 07:50:00,
2013-10-27 02:55:00,58.8,57.4,30.06,ESE,119,0.0,0.0,95,0.00,,,0.00,Wunderground v.1.15,2013-10-27 07:55:00,
2013-10-27 03:00:00,58.8,57.4,30.05,ESE,119,0.0,0.0,95,0.00,,,0.00,Wunderground v.1.15,2013-10-27 08:00:00,
2013-10-27 03:10:00,58.8,57.4,30.05,ESE,119,0.0,0.0,95,0.00,,,0.00,Wunderground v.1.15,2013-10-27 08:10:00,
2013-10-27 03:15:00,58.8,57.4,30.05,ESE,119,0.0,0.0,95,0.00,,,0.00,Wunderground v.1.15,2013-10-27 08:15:00,
2013-10-27 03:20:00,58.7,57.3,30.05,ESE,119,0.0,0.0,95,0.00,,,0.00,Wunderground v.1.15,2013-10-27 08:20:00,
2013-10-27 03:25:00,58.7,57.3,30.05,ESE,119,0.0,0.0,95,0.00,,,0.00,Wunderground v.1.15,2013-10-27 08:25:00,
2013-10-27 03:35:00,58.7,57.3,30.05,ESE,119,0.0,0.0,95,0.00,,,0.00,Wunderground v.1.15,2013-10-27 08:35:00,
2013-10-27 03:40:00,58.7,57.3,30.05,ESE,119,0.0,0.0,95,0.00,,,0.00,Wunderground v.1.15,2013-10-27 08:40:00,
2013-10-27 03:45:00,58.6,57.2,30.05,ESE,119,0.0,0.0,95,0.00,,,0.00,Wunderground v.1.15,2013-10-27 08:45:00,
2013-10-27 03:50:00,58.6,57.2,30.05,ESE,119,0.0,0.0,95,0.00,,,0.00,Wunderground v.1.15,2013-10-27 08:50:00,
2013-10-27 03:55:00,58.6,57.2,30.05,ESE,119,0.0,0.0,95,0.00,,,0.00,Wunderground v.1.15,2013-10-27 08:55:00,
2013-10-27 04:00:00,58.6,57.2,30.05,ESE,119,0.0,0.0,95,0.00,,,0.00,Wunderground v.1.15,2013-10-27 09:00:00,
2013-10-27 04:10:00,58.6,57.2,30.05,ESE,119,0.0,0.0,95,0.00,,,0.00,Wunderground v.1.15,2013-10-27 09:10:00,
2013-10-27 04:15:00,58.6,57.2,30.04,ESE,119,0.0,0.0,95,0.00,,,0.00,Wunderground v.1.15,2013-10-27 09:15:00,
2013-10-27 04:25:00,58.7,57.3,30.05,ESE,119,0.0,0.0,95,0.00,,,0.00,Wunderground v.1.15,2013-10-27 09:25:00,
2013-10-27 04:30:00,58.7,57.3,30.05,ESE,119,0.0,0.0,95,0.00,,,0.00,Wunderground v.1.15,2013-10-27 09:30:00,
2013-10-27 04:35:00,58.7,57.3,30.05,ESE,119,0.0,0.0,95,0.00,,,0.00,Wunderground v.1.15,2013-10-27 09:35:00,
2013-10-27 04:40:00,58.7,57.3,30.05,ESE,119,0.0,0.0,95,0.00,,,0.00,Wunderground v.1.15,2013-10-27 09:40:00,
2013-10-27 04:50:00,58.6,57.2,30.05,ESE,119,0.0,0.0,95,0.00,,,0.00,Wunderground v.1.15,2013-10-27 09:50:00,
2013-10-27 04:55:00,58.7,57.3,30.04,ESE,119,0.0,0.0,95,0.00,,,0.00,Wunderground v.1.15,2013-10-27 09:55:00,
2013-10-27 05:00:00,58.7,57.3,30.04,ESE,119,0.0,0.0,95,0.00,,,0.00,Wunderground v.1.15,2013-10-27 10:00:00,
2013-10-27 05:10:00,58.7,57.3,30.04,ESE,119,0.0,0.0,95,0.00,,,0.00,Wunderground v.1.15,2013-10-27 10:10:00,
2013-10-27 05:15:00,58.7,57.3,30.04,ESE,119,0.0,0.0,95,0.00,,,0.00,Wunderground v.1.15,2013-10-27 10:15:00,
2013-10-27 05:20:00,58.7,57.3,30.04,ESE,119,0.0,0.0,95,0.00,,,0.00,Wunderground v.1.15,2013-10-27 10:20:00,
2013-10-27 05:30:00,58.8,57.4,30.04,ESE,119,0.0,0.0,95,0.00,,,0.00,Wunderground v.1.15,2013-10-27 10:30:00,
2013-10-27 05:35:00,58.9,57.5,30.05,ESE,119,0.0,0.0,95,0.00,,,0.00,Wunderground v.1.15,2013-10-27 10:35:00,
2013-10-27 05:40:00,58.8,57.4,30.05,ESE,119,0.0,0.0,95,0.00,,,0.00,Wunderground v.1.15,2013-10-27 10:40:00,
2013-10-27 05:45:00,58.8,57.4,30.05,ESE,119,0.0,0.0,95,0.00,,,0.00,Wunderground v.1.15,2013-10-27 10:45:00,
2013-10-27 05:50:00,58.9,57.5,30.05,ESE,112,0.0,5.0,95,0.00,,,0.00,Wunderground v.1.15,2013-10-27 10:50:00,
2013-10-27 06:00:00,58.9,57.5,30.05,East,81,1.0,1.0,95,0.00,,,0.00,Wunderground v.1.15,2013-10-27 11:00:00,
2013-10-27 06:10:00,59.0,57.6,30.05,East,81,0.0,0.0,95,0.00,,,0.00,Wunderground v.1.15,2013-10-27 11:10:00,
2013-10-27 06:20:00,59.0,58.4,30.06,East,81,0.0,0.0,98,0.00,,,0.00,Wunderground v.1.15,2013-10-27 11:20:00,
2013-10-27 06:25:00,59.1,58.0,30.05,East,81,0.0,0.0,96,0.00,,,0.00,Wunderground v.1.15,2013-10-27 11:25:00,
2013-10-27 06:30:00,59.0,57.9,30.05,East,81,0.0,0.0,96,0.00,,,0.00,Wunderground v.1.15,2013-10-27 11:30:00,
2013-10-27 06:35:00,59.0,57.9,30.05,East,81,0.0,0.0,96,0.00,,,0.00,Wunderground v.1.15,2013-10-27 11:35:00,
2013-10-27 06:40:00,59.0,57.9,30.05,East,81,0.0,0.0,96,0.00,,,0.00,Wunderground v.1.15,2013-10-27 11:40:00,
2013-10-27 06:50:00,59.1,58.0,30.05,East,81,0.0,0.0,96,0.00,,,0.00,Wunderground v.1.15,2013-10-27 11:50:00,
2013-10-27 06:55:00,59.1,58.0,30.06,East,81,0.0,0.0,96,0.00,,,0.00,Wunderground v.1.15,2013-10-27 11:55:00,
2013-10-27 07:00:00,59.1,58.0,30.06,East,81,0.0,0.0,96,0.00,,,0.01,Wunderground v.1.15,2013-10-27 12:00:00,
2013-10-27 07:10:00,59.2,58.1,30.06,East,81,0.0,0.0,96,0.00,,,0.01,Wunderground v.1.15,2013-10-27 12:10:00,
2013-10-27 07:15:00,59.2,58.1,30.06,East,81,0.0,0.0,96,0.00,,,0.01,Wunderground v.1.15,2013-10-27 12:15:00,
2013-10-27 07:20:00,59.2,58.1,30.06,East,81,0.0,0.0,96,0.00,,,0.01,Wunderground v.1.15,2013-10-27 12:20:00,
2013-10-27 07:30:00,59.2,58.1,30.06,East,81,0.0,0.0,96,0.00,,,0.01,Wunderground v.1.15,2013-10-27 12:30:00,
2013-10-27 07:35:00,59.2,58.1,30.06,East,81,0.0,0.0,96,0.00,,,0.01,Wunderground v.1.15,2013-10-27 12:35:00,
2013-10-27 07:40:00,59.2,58.1,30.06,East,81,0.0,0.0,96,0.00,,,0.01,Wunderground v.1.15,2013-10-27 12:40:00,
2013-10-27 07:45:00,59.2,58.1,30.06,East,81,0.0,0.0,96,0.00,,,0.01,Wunderground v.1.15,2013-10-27 12:45:00,
2013-10-27 07:55:00,59.2,58.1,30.07,ENE,74,0.0,0.0,96,0.00,,,0.01,Wunderground v.1.15,2013-10-27 12:55:00,
2013-10-27 08:00:00,59.1,58.0,30.07,ENE,74,0.0,0.0,96,0.00,,,0.01,Wunderground v.1.15,2013-10-27 13:00:00,
2013-10-27 08:10:00,59.1,58.0,30.07,ENE,74,0.0,0.0,96,0.00,,,0.01,Wunderground v.1.15,2013-10-27 13:10:00,
2013-10-27 08:15:00,59.1,58.0,30.07,ENE,74,0.0,0.0,96,0.00,,,0.01,Wunderground v.1.15,2013-10-27 13:15:00,
2013-10-27 08:20:00,59.1,58.0,30.07,ENE,72,0.0,0.0,96,0.00,,,0.01,Wunderground v.1.15,2013-10-27 13:20:00,
2013-10-27 08:25:00,59.2,58.1,30.07,ENE,62,0.0,0.0,96,0.00,,,0.01,Wunderground v.1.15,2013-10-27 13:25:00,
2013-10-27 08:30:00,59.3,58.2,30.07,ENE,59,0.0,0.0,96,0.00,,,0.01,Wunderground v.1.15,2013-10-27 13:30:00,
2013-10-27 08:35:00,59.3,58.2,30.07,ENE,59,0.0,0.0,96,0.00,,,0.01,Wunderground v.1.15,2013-10-27 13:35:00,
2013-10-27 08:45:00,59.5,58.4,30.08,ENE,59,0.0,0.0,96,0.00,,,0.01,Wunderground v.1.15,2013-10-27 13:45:00,
2013-10-27 08:50:00,59.6,58.5,30.08,ENE,59,0.0,0.0,96,0.00,,,0.01,Wunderground v.1.15,2013-10-27 13:50:00,
2013-10-27 08:55:00,59.6,58.5,30.08,NE,53,0.0,0.0,96,0.00,,,0.01,Wunderground v.1.15,2013-10-27 13:55:00,
2013-10-27 09:00:00,59.7,58.6,30.08,NE,50,0.0,0.0,96,0.00,,,0.01,Wunderground v.1.15,2013-10-27 14:00:00,
2013-10-27 09:10:00,59.8,58.7,30.09,NE,50,0.0,0.0,96,0.00,,,0.01,Wunderground v.1.15,2013-10-27 14:10:00,
2013-10-27 09:15:00,59.9,58.8,30.09,NE,50,0.0,0.0,96,0.00,,,0.01,Wunderground v.1.15,2013-10-27 14:15:00,
2013-10-27 09:25:00,60.1,59.0,30.09,NE,50,0.0,0.0,96,0.00,,,0.01,Wunderground v.1.15,2013-10-27 14:25:00,
2013-10-27 09:30:00,60.2,59.1,30.09,NE,50,0.0,0.0,96,0.00,,,0.01,Wunderground v.1.15,2013-10-27 14:30:00,
2013-10-27 09:35:00,60.3,59.2,30.10,NE,50,0.0,0.0,96,0.00,,,0.01,Wunderground v.1.15,2013-10-27 14:35:00,
2013-10-27 09:40:00,60.3,58.9,30.10,NE,50,0.0,0.0,95,0.00,,,0.01,Wunderground v.1.15,2013-10-27 14:40:00,
2013-10-27 09:45:00,60.3,58.9,30.10,NE,50,0.0,0.0,95,0.00,,,0.01,Wunderground v.1.15,2013-10-27 14:45:00,
2013-10-27 09:55:00,60.3,58.9,30.11,NE,50,0.0,3.0,95,0.00,,,0.01,Wunderground v.1.15,2013-10-27 14:55:00,
2013-10-27 10:00:00,60.4,59.3,30.11,NE,49,0.0,0.0,96,0.00,,,0.01,Wunderground v.1.15,2013-10-27 15:00:00,
2013-10-27 10:10:00,60.5,59.1,30.11,NE,49,0.0,0.0,95,0.00,,,0.01,Wunderground v.1.15,2013-10-27 15:10:00,
2013-10-27 10:15:00,60.6,59.2,30.11,NE,50,0.0,0.0,95,0.00,,,0.01,Wunderground v.1.15,2013-10-27 15:15:00,
2013-10-27 10:20:00,60.7,59.3,30.11,NE,50,0.0,0.0,95,0.00,,,0.01,Wunderground v.1.15,2013-10-27 15:20:00,
2013-10-27 10:25:00,60.7,59.3,30.11,ENE,74,0.0,0.0,95,0.00,,,0.01,Wunderground v.1.15,2013-10-27 15:25:00,
2013-10-27 10:30:00,60.7,59.3,30.11,ENE,59,0.0,0.0,95,0.00,,,0.01,Wunderground v.1.15,2013-10-27 15:30:00,
2013-10-27 10:40:00,60.7,59.3,30.11,NE,35,0.0,0.0,95,0.00,,,0.01,Wunderground v.1.15,2013-10-27 15:40:00,
2013-10-27 10:45:00,60.9,59.5,30.11,ENE,59,0.0,0.0,95,0.00,,,0.01,Wunderground v.1.15,2013-10-27 15:45:00,
2013-10-27 10:50:00,61.1,59.7,30.11,NE,53,0.0,0.0,95,0.00,,,0.01,Wunderground v.1.15,2013-10-27 15:50:00,
2013-10-27 10:55:00,61.1,59.4,30.11,NE,52,0.0,0.0,94,0.00,,,0.01,Wunderground v.1.15,2013-10-27 15:55:00,
2013-10-27 11:00:00,61.1,59.4,30.11,NE,44,0.0,0.0,94,0.00,,,0.01,Wunderground v.1.15,2013-10-27 16:00:00,
2013-10-27 11:10:00,61.1,59.4,30.11,NE,43,0.0,0.0,94,0.00,,,0.01,Wunderground v.1.15,2013-10-27 16:10:00,
2013-10-27 11:20:00,61.5,59.8,30.11,NE,42,0.0,0.0,94,0.00,,,0.01,Wunderground v.1.15,2013-10-27 16:20:00,
2013-10-27 11:25:00,61.7,59.7,30.11,NE,42,0.0,0.0,93,0.00,,,0.01,Wunderground v.1.15,2013-10-27 16:25:00,
2013-10-27 11:30:00,62.0,59.3,30.11,NE,42,0.0,0.0,91,0.00,,,0.01,Wunderground v.1.15,2013-10-27 16:30:00,
2013-10-27 11:35:00,62.9,59.9,30.11,NE,42,0.0,0.0,90,0.00,,,0.01,Wunderground v.1.15,2013-10-27 16:35:00,
2013-10-27 11:40:00,63.6,59.7,30.11,NE,42,0.0,0.0,87,0.00,,,0.01,Wunderground v.1.15,2013-10-27 16:40:00,
2013-10-27 11:50:00,64.8,60.5,30.11,NE,43,0.0,0.0,86,0.00,,,0.01,Wunderground v.1.15,2013-10-27 16:50:00,
2013-10-27 11:55:00,64.8,59.9,30.10,NE,43,0.0,0.0,84,0.00,,,0.01,Wunderground v.1.15,2013-10-27 16:55:00,
2013-10-27 12:00:00,65.4,59.4,30.10,NE,43,0.0,0.0,81,0.00,,,0.01,Wunderground v.1.15,2013-10-27 17:00:00,
2013-10-27 12:10:00,65.6,58.9,30.10,NE,43,0.0,0.0,79,0.00,,,0.01,Wunderground v.1.15,2013-10-27 17:10:00,
2013-10-27 12:15:00,65.6,58.2,30.10,NE,43,0.0,0.0,77,0.00,,,0.01,Wunderground v.1.15,2013-10-27 17:15:00,
2013-10-27 12:20:00,65.8,58.4,30.10,NE,43,0.0,0.0,77,0.00,,,0.01,Wunderground v.1.15,2013-10-27 17:20:00,
2013-10-27 12:25:00,66.2,59.1,30.10,NE,43,0.0,0.0,78,0.00,,,0.01,Wunderground v.1.15,2013-10-27 17:25:00,
2013-10-27 12:35:00,66.2,59.5,30.09,NE,43,0.0,0.0,79,0.00,,,0.01,Wunderground v.1.15,2013-10-27 17:35:00,
2013-10-27 12:40:00,66.0,58.6,30.09,NE,43,0.0,0.0,77,0.00,,,0.01,Wunderground v.1.15,2013-10-27 17:40:00,
2013-10-27 12:45:00,66.1,58.7,30.08,NE,43,0.0,0.0,77,0.00,,,0.01,Wunderground v.1.15,2013-10-27 17:45:00,
2013-10-27 12:50:00,66.0,58.9,30.08,NE,43,0.0,0.0,78,0.00,,,0.01,Wunderground v.1.15,2013-10-27 17:50:00,
2013-10-27 13:00:00,66.9,59.8,30.07,NE,43,0.0,0.0,78,0.00,,,0.01,Wunderground v.1.15,2013-10-27 18:00:00,
2013-10-27 13:10:00,66.5,58.7,30.07,NE,43,0.0,0.0,76,0.00,,,0.01,Wunderground v.1.15,2013-10-27 18:10:00,
2013-10-27 13:15:00,66.4,59.3,30.07,NE,43,0.0,0.0,78,0.00,,,0.01,Wunderground v.1.15,2013-10-27 18:15:00,
2013-10-27 13:20:00,66.4,59.3,30.07,NE,43,0.0,0.0,78,0.00,,,0.01,Wunderground v.1.15,2013-10-27 18:20:00,
2013-10-27 13:25:00,66.5,59.1,30.07,NE,43,0.0,0.0,77,0.00,,,0.01,Wunderground v.1.15,2013-10-27 18:25:00,
2013-10-27 13:30:00,66.7,59.6,30.07,NE,43,0.0,0.0,78,0.00,,,0.01,Wunderground v.1.15,2013-10-27 18:30:00,
2013-10-27 13:40:00,66.4,59.0,30.06,NE,43,0.0,0.0,77,0.00,,,0.01,Wunderground v.1.15,2013-10-27 18:40:00,
2013-10-27 13:45:00,66.4,59.0,30.06,NE,43,0.0,0.0,77,0.00,,,0.01,Wunderground v.1.15,2013-10-27 18:45:00,
2013-10-27 13:50:00,66.4,59.3,30.06,NE,43,0.0,0.0,78,0.00,,,0.01,Wunderground v.1.15,2013-10-27 18:50:00,
2013-10-27 13:55:00,66.6,59.5,30.05,NE,43,0.0,1.0,78,0.00,,,0.01,Wunderground v.1.15,2013-10-27 18:55:00,
2013-10-27 14:00:00,66.7,59.6,30.05,NE,43,0.0,0.0,78,0.00,,,0.01,Wunderground v.1.15,2013-10-27 19:00:00,
2013-10-27 14:10:00,66.7,59.3,30.05,NE,43,0.0,0.0,77,0.00,,,0.01,Wunderground v.1.15,2013-10-27 19:10:00,
2013-10-27 14:20:00,67.2,59.7,30.04,NW,325,0.0,0.0,77,0.00,,,0.01,Wunderground v.1.15,2013-10-27 19:20:00,
2013-10-27 14:25:00,67.4,59.6,30.04,NW,325,1.0,1.0,76,0.00,,,0.01,Wunderground v.1.15,2013-10-27 19:25:00,
2013-10-27 14:30:00,67.3,59.8,30.04,NW,321,2.0,2.0,77,0.00,,,0.01,Wunderground v.1.15,2013-10-27 19:30:00,
2013-10-27 14:35:00,67.5,60.0,30.04,NW,322,1.0,2.0,77,0.00,,,0.01,Wunderground v.1.15,2013-10-27 19:35:00,
2013-10-27 14:40:00,67.6,60.1,30.04,NW,322,0.0,0.0,77,0.00,,,0.01,Wunderground v.1.15,2013-10-27 19:40:00,
2013-10-27 14:50:00,67.6,60.1,30.03,NW,321,0.0,0.0,77,0.00,,,0.01,Wunderground v.1.15,2013-10-27 19:50:00,
2013-10-27 14:55:00,68.4,60.5,30.03,NW,321,0.0,0.0,76,0.00,,,0.01,Wunderground v.1.15,2013-10-27 19:55:00,
2013-10-27 15:00:00,69.6,60.6,30.03,NW,321,0.0,0.0,73,0.00,,,0.01,Wunderground v.1.15,2013-10-27 20:00:00,
2013-10-27 15:10:00,69.8,60.4,30.02,NW,321,0.0,0.0,72,0.00,,,0.01,Wunderground v.1.15,2013-10-27 20:10:00,
2013-10-27 15:15:00,69.2,59.4,30.02,NW,321,0.0,0.0,71,0.00,,,0.01,Wunderground v.1.15,2013-10-27 20:15:00,
2013-10-27 15:20:00,68.5,59.5,30.02,NW,316,0.0,0.0,73,0.00,,,0.01,Wunderground v.1.15,2013-10-27 20:20:00,
2013-10-27 15:25:00,68.7,59.3,30.02,NW,316,0.0,0.0,72,0.00,,,0.01,Wunderground v.1.15,2013-10-27 20:25:00,
2013-10-27 15:35:00,70.1,59.9,30.02,NW,315,0.0,1.0,70,0.00,,,0.01,Wunderground v.1.15,2013-10-27 20:35:00,
2013-10-27 15:40:00,69.6,59.4,30.02,NW,315,0.0,0.0,70,0.00,,,0.01,Wunderground v.1.15,2013-10-27 20:40:00,
2013-10-27 15:45:00,69.2,59.0,30.01,NW,315,0.0,0.0,70,0.00,,,0.01,Wunderground v.1.15,2013-10-27 20:45:00,
2013-10-27 15:50:00,69.0,59.2,30.01,NW,314,0.0,0.0,71,0.00,,,0.01,Wunderground v.1.15,2013-10-27 20:50:00,
2013-10-27 16:00:00,68.6,58.8,30.01,NW,314,0.0,0.0,71,0.00,,,0.01,Wunderground v.1.15,2013-10-27 21:00:00,
2013-10-27 16:10:00,68.4,58.2,30.01,NW,314,0.0,0.0,70,0.00,,,0.01,Wunderground v.1.15,2013-10-27 21:10:00,
2013-10-27 16:15:00,68.3,58.5,30.01,NW,314,0.0,0.0,71,0.00,,,0.01,Wunderground v.1.15,2013-10-27 21:15:00,
2013-10-27 16:20:00,68.3,58.5,30.00,NW,314,0.0,0.0,71,0.00,,,0.01,Wunderground v.1.15,2013-10-27 21:20:00,
2013-10-27 16:25:00,68.4,59.0,30.00,NW,314,0.0,0.0,72,0.00,,,0.01,Wunderground v.1.15,2013-10-27 21:25:00,
2013-10-27 16:30:00,68.4,58.2,30.00,NW,314,0.0,0.0,70,0.00,,,0.01,Wunderground v.1.15,2013-10-27 21:30:00,
2013-10-27 16:40:00,68.3,58.1,30.00,NW,314,0.0,0.0,70,0.00,,,0.01,Wunderground v.1.15,2013-10-27 21:40:00,
2013-10-27 16:45:00,68.2,58.8,30.00,NW,314,0.0,0.0,72,0.00,,,0.01,Wunderground v.1.15,2013-10-27 21:45:00,
2013-10-27 16:50:00,68.0,58.6,30.00,NNW,334,2.0,2.0,72,0.00,,,0.01,Wunderground v.1.15,2013-10-27 21:50:00,
2013-10-27 16:55:00,67.9,58.9,30.00,NNW,334,2.0,2.0,73,0.00,,,0.01,Wunderground v.1.15,2013-10-27 21:55:00,
2013-10-27 17:00:00,67.7,58.7,30.00,NNW,334,0.0,0.0,73,0.00,,,0.01,Wunderground v.1.15,2013-10-27 22:00:00,
2013-10-27 17:10:00,67.4,58.8,30.00,East,79,1.0,1.0,74,0.00,,,0.01,Wunderground v.1.15,2013-10-27 22:10:00,
2013-10-27 17:15:00,67.2,58.6,30.00,East,79,0.0,1.0,74,0.00,,,0.01,Wunderground v.1.15,2013-10-27 22:15:00,
2013-10-27 17:25:00,67.1,58.9,29.99,East,79,0.0,0.0,75,0.00,,,0.01,Wunderground v.1.15,2013-10-27 22:25:00,
2013-10-27 17:30:00,67.0,58.8,30.00,East,79,0.0,0.0,75,0.00,,,0.01,Wunderground v.1.15,2013-10-27 22:30:00,
2013-10-27 17:35:00,66.8,58.6,30.00,East,79,0.0,0.0,75,0.00,,,0.01,Wunderground v.1.15,2013-10-27 22:35:00,
2013-10-27 17:40:00,66.7,58.9,30.00,East,79,0.0,0.0,76,0.00,,,0.01,Wunderground v.1.15,2013-10-27 22:40:00,
2013-10-27 17:45:00,66.5,58.7,30.00,East,79,0.0,0.0,76,0.00,,,0.01,Wunderground v.1.15,2013-10-27 22:45:00,
2013-10-27 17:55:00,66.3,58.9,29.99,East,79,0.0,0.0,77,0.00,,,0.01,Wunderground v.1.15,2013-10-27 22:55:00,
2013-10-27 18:00:00,66.1,58.7,30.00,East,80,0.0,0.0,77,0.00,,,0.01,Wunderground v.1.15,2013-10-27 23:00:00,
2013-10-27 18:10:00,65.8,58.4,30.00,East,85,0.0,0.0,77,0.00,,,0.01,Wunderground v.1.15,2013-10-27 23:10:00,
2013-10-27 18:15:00,65.7,58.3,30.00,East,88,0.0,0.0,77,0.00,,,0.01,Wunderground v.1.15,2013-10-27 23:15:00,
2013-10-27 18:20:00,65.7,58.3,30.00,East,97,0.0,0.0,77,0.00,,,0.01,Wunderground v.1.15,2013-10-27 23:20:00,
2013-10-27 18:25:00,65.6,58.6,30.00,East,98,0.0,0.0,78,0.00,,,0.01,Wunderground v.1.15,2013-10-27 23:25:00,
2013-10-27 18:35:00,65.5,58.5,30.00,East,98,0.0,0.0,78,0.00,,,0.01,Wunderground v.1.15,2013-10-27 23:35:00,
2013-10-27 18:40:00,65.4,58.4,30.00,East,98,0.0,0.0,78,0.00,,,0.01,Wunderground v.1.15,2013-10-27 23:40:00,
2013-10-27 18:45:00,65.3,58.3,30.00,East,98,0.0,0.0,78,0.00,,,0.01,Wunderground v.1.15,2013-10-27 23:45:00,
2013-10-27 18:50:00,65.3,58.3,30.00,East,99,0.0,0.0,78,0.00,,,0.01,Wunderground v.1.15,2013-10-27 23:50:00,
2013-10-27 19:00:00,65.2,58.5,30.00,ESE,107,0.0,0.0,79,0.00,,,0.01,Wunderground v.1.15,2013-10-28 00:00:00,
2013-10-27 19:10:00,65.0,58.3,30.00,ESE,112,0.0,7.0,79,0.00,,,0.01,Wunderground v.1.15,2013-10-28 00:10:00,
2013-10-27 19:15:00,64.9,58.2,30.00,ESE,117,1.0,7.0,79,0.00,,,0.01,Wunderground v.1.15,2013-10-28 00:15:00,
2013-10-27 19:20:00,64.8,58.1,30.00,ESE,119,1.0,1.0,79,0.00,,,0.01,Wunderground v.1.15,2013-10-28 00:20:00,
2013-10-27 19:25:00,64.8,58.1,30.00,ESE,119,0.0,1.0,79,0.00,,,0.01,Wunderground v.1.15,2013-10-28 00:25:00,
2013-10-27 19:30:00,64.7,58.0,30.00,ESE,121,0.0,7.0,79,0.00,,,0.01,Wunderground v.1.15,2013-10-28 00:30:00,
2013-10-27 19:35:00,64.7,57.7,30.00,ESE,123,1.0,7.0,78,0.00,,,0.01,Wunderground v.1.15,2013-10-28 00:35:00,
2013-10-27 19:45:00,64.6,57.6,30.00,ESE,123,0.0,1.0,78,0.00,,,0.01,Wunderground v.1.15,2013-10-28 00:45:00,
2013-10-27 19:50:00,64.6,57.6,30.00,ESE,123,0.0,0.0,78,0.00,,,0.01,Wunderground v.1.15,2013-10-28 00:50:00,
2013-10-27 19:55:00,64.6,57.6,30.00,ESE,123,0.0,1.0,78,0.00,,,0.01,Wunderground v.1.15,2013-10-28 00:55:00,
2013-10-27 20:00:00,64.6,57.9,30.00,ESE,123,0.0,0.0,79,0.00,,,0.01,Wunderground v.1.15,2013-10-28 01:00:00,
2013-10-27 20:10:00,64.5,57.5,30.00,SE,130,0.0,0.0,78,0.00,,,0.01,Wunderground v.1.15,2013-10-28 01:10:00,
2013-10-27 20:15:00,64.5,57.5,30.00,SE,130,0.0,0.0,78,0.00,,,0.01,Wunderground v.1.15,2013-10-28 01:15:00,
2013-10-27 20:20:00,64.5,57.5,30.00,SE,139,1.0,1.0,78,0.00,,,0.01,Wunderground v.1.15,2013-10-28 01:20:00,
2013-10-27 20:25:00,64.5,57.5,30.00,SE,140,1.0,1.0,78,0.00,,,0.01,Wunderground v.1.15,2013-10-28 01:25:00,
2013-10-27 20:30:00,64.5,57.5,30.00,SE,140,0.0,0.0,78,0.00,,,0.01,Wunderground v.1.15,2013-10-28 01:30:00,
2013-10-27 20:40:00,64.4,57.7,30.01,SE,140,0.0,0.0,79,0.00,,,0.01,Wunderground v.1.15,2013-10-28 01:40:00,
2013-10-27 20:45:00,64.4,57.7,30.01,SE,140,0.0,0.0,79,0.00,,,0.01,Wunderground v.1.15,2013-10-28 01:45:00,
2013-10-27 20:50:00,64.3,57.6,30.01,SE,141,0.0,0.0,79,0.00,,,0.01,Wunderground v.1.15,2013-10-28 01:50:00,
2013-10-27 20:55:00,64.3,57.6,30.01,SE,141,0.0,0.0,79,0.00,,,0.01,Wunderground v.1.15,2013-10-28 01:55:00,
2013-10-27 21:00:00,64.2,57.2,30.01,SE,141,0.0,0.0,78,0.00,,,0.01,Wunderground v.1.15,2013-10-28 02:00:00,
2013-10-27 21:10:00,64.1,57.5,30.01,SE,141,0.0,0.0,79,0.00,,,0.01,Wunderground v.1.15,2013-10-28 02:10:00,
2013-10-27 21:20:00,64.0,57.0,30.01,SE,143,1.0,1.0,78,0.00,,,0.01,Wunderground v.1.15,2013-10-28 02:20:00,
2013-10-27 21:25:00,64.0,57.4,30.01,SE,146,0.0,1.0,79,0.00,,,0.01,Wunderground v.1.15,2013-10-28 02:25:00,
2013-10-27 21:30:00,64.0,57.7,30.01,SE,146,0.0,0.0,80,0.00,,,0.01,Wunderground v.1.15,2013-10-28 02:30:00,
2013-10-27 21:35:00,64.0,57.7,30.01,SE,146,0.0,0.0,80,0.00,,,0.01,Wunderground v.1.15,2013-10-28 02:35:00,
2013-10-27 21:45:00,63.9,57.6,30.01,SE,146,0.0,0.0,80,0.00,,,0.01,Wunderground v.1.15,2013-10-28 02:45:00,
2013-10-27 21:50:00,63.8,57.5,30.02,SE,146,0.0,0.0,80,0.00,,,0.01,Wunderground v.1.15,2013-10-28 02:50:00,
2013-10-27 21:55:00,63.7,57.4,30.02,SE,146,0.0,0.0,80,0.00,,,0.01,Wunderground v.1.15,2013-10-28 02:55:00,
2013-10-27 22:00:00,63.7,57.4,30.02,SE,146,0.0,0.0,80,0.00,,,0.01,Wunderground v.1.15,2013-10-28 03:00:00,
2013-10-27 22:10:00,63.5,57.6,30.02,SE,146,0.0,0.0,81,0.00,,,0.01,Wunderground v.1.15,2013-10-28 03:10:00,
2013-10-27 22:20:00,63.2,57.3,30.02,SE,146,0.0,0.0,81,0.00,,,0.01,Wunderground v.1.15,2013-10-28 03:20:00,
2013-10-27 22:25:00,63.0,57.4,30.02,SE,146,0.0,0.0,82,0.00,,,0.01,Wunderground v.1.15,2013-10-28 03:25:00,
2013-10-27 22:30:00,62.7,57.1,30.02,SE,146,0.0,0.0,82,0.00,,,0.01,Wunderground v.1.15,2013-10-28 03:30:00,
2013-10-27 22:35:00,62.4,56.8,30.02,SE,146,0.0,0.0,82,0.00,,,0.01,Wunderground v.1.15,2013-10-28 03:35:00,
2013-10-27 22:45:00,61.9,56.7,30.02,SE,146,0.0,0.0,83,0.00,,,0.01,Wunderground v.1.15,2013-10-28 03:45:00,
2013-10-27 22:50:00,61.7,56.8,30.01,SE,146,0.0,0.0,84,0.00,,,0.01,Wunderground v.1.15,2013-10-28 03:50:00,
2013-10-27 22:55:00,61.4,56.5,30.01,SE,146,0.0,0.0,84,0.00,,,0.01,Wunderground v.1.15,2013-10-28 03:55:00,
2013-10-27 23:00:00,61.1,56.6,30.02,SE,146,0.0,0.0,85,0.00,,,0.01,Wunderground v.1.15,2013-10-28 04:00:00,
2013-10-27 23:05:00,60.9,56.4,30.02,SE,146,0.0,0.0,85,0.00,,,0.01,Wunderground v.1.15,2013-10-28 04:05:00,
2013-10-27 23:10:00,60.6,56.4,30.01,SE,146,0.0,0.0,86,0.00,,,0.01,Wunderground v.1.15,2013-10-28 04:10:00,
2013-10-27 23:15:00,60.2,56.0,30.01,SE,146,0.0,0.0,86,0.00,,,0.01,Wunderground v.1.15,2013-10-28 04:15:00,
2013-10-27 23:25:00,59.8,55.9,30.01,SE,146,0.0,0.0,87,0.00,,,0.01,Wunderground v.1.15,2013-10-28 04:25:00,
2013-10-27 23:30:00,59.6,56.0,30.02,SE,146,0.0,0.0,88,0.00,,,0.01,Wunderground v.1.15,2013-10-28 04:30:00,
2013-10-27 23:35:00,59.5,55.9,30.01,SE,146,0.0,0.0,88,0.00,,,0.01,Wunderground v.1.15,2013-10-28 04:35:00,
2013-10-27 23:40:00,59.4,56.2,30.01,SE,146,0.0,0.0,89,0.00,,,0.01,Wunderground v.1.15,2013-10-28 04:40:00,
2013-10-27 23:50:00,59.2,56.0,30.01,SE,146,0.0,0.0,89,0.00,,,0.01,Wunderground v.1.15,2013-10-28 04:50:00,
2013-10-27 23:55:00,59.1,55.9,30.01,SE,146,0.0,0.0,89,0.00,,,0.01,Wunderground v.1.15,2013-10-28 04:55:00,